Location: Spring Creek
(38.2870°N, 100.2160°W)
Time: 03:57:33
(UTC+00:00)

Cosmos 1833 Rocket - Pass Details

Date: 08 May 2021
Orbit: 831 x 841 km, 71.0° (Epoch: 22 June)

Event Time Altitude Azimuth Distance (km) Brightness Sun altitude
Rises 04:51:42 0° 338° (NNW) 3,402 7.1 -29.3°
Reaches altitude 10° 04:54:09 10° 339° (NNW) 2,464 6.0 -29.5°
Enters shadow 04:59:09 71° 351° (N) 891 2.8 -30.0°
